Regional Weather Roundup
Issued by NWS

Home | Current Version | Previous Version | Graphics & Text | Print | Product List | Glossary On
Versions: 1 2 3 4 5 6 7 8 9 10 11 12 13 14 15 16 17 18 19 20 21 22 23 24 25 26 27 28 29 30 31 32 33 34 35 36 37 38 39 40 41 42 43 44 45 46 47 48 49 50
000
ASUS43 KMPX 261501
RWRMN
WEATHER ROUNDUP FOR MINNESOTA
NATIONAL WEATHER SERVICE TWIN CITIES/CHANHASSEN MN
1000 AM CDT WED APR 26 2017


NOTE: "FAIR" INDICATES FEW OR NO CLOUDS BELOW 12,000 FEET WITH NO
SIGNIFICANT WEATHER AND/OR OBSTRUCTIONS TO VISIBILITY. N/A MEANS
CURRENT SKY AND/OR WEATHER CONDITIONS ARE NOT AVAILABLE.

MNZ060>063-068>070-261600-
   Twin Cities Metro

CITY           SKY/WX    TMP DP  RH WIND       PRES   REMARKS
TWIN CITIES    LGT RAIN  37  33  85 N13       29.51S
ST PAUL        LGT RAIN  37  35  92 N13       29.51S
CRYSTAL        LGT RAIN  36  31  82 N12       29.50F
BLAINE         LGT RAIN  36  36 100 N12G20    29.51S
LAKEVILLE      CLOUDY    36  36 100 N12       29.50S
EDEN PRAIRIE   LGT RAIN  37  33  85 N13       29.51R
SOUTH ST PAUL  CLOUDY    36  36 100 N9        29.50S
LAKE ELMO      MIX PCPN  36  36 100 N9        29.50S
$$
MNZ001>005-007-008-013>017-022>024-027-028-261600-
   Northwest Minnesota

CITY           SKY/WX    TMP DP  RH WIND       PRES   REMARKS
BEMIDJI        LGT SNOW  25  22  89 N10       29.71F WCI  15
HALLOCK        CLOUDY    30  25  80 N14       29.87F WCI  20
ROSEAU         CLOUDY    28  21  74 NE17      29.85S WCI  16
WARROAD        CLOUDY    27  23  86 NE23G29   29.85S WCI  12
THIEF RVR FALL LGT SNOW  26  23  88 N16       29.81S FOG     WCI  14
CROOKSTON      SNOW      28  27  93 NE12G20   29.82F VSB 1/2 WCI  18
FOSSTON        LGT SNOW  25  21  86 N17       29.75F WCI  11
DETROIT LAKES  LGT SNOW  28  27  93 CALM      29.71S
MOORHEAD       LGT RAIN  28  25  86 N8        29.76F WCI  20
PARK RAPIDS    LGT SNOW  27  20  75 N15G24    29.66F WCI  15
MAHNOMEN       LGT SNOW  27  25  90 N5        29.73S WCI  22
$$
MNZ006-009>011-018-025>026-261600-
   North Central Minnesota

CITY           SKY/WX    TMP DP  RH WIND       PRES   REMARKS
BAUDETTE       LGT SNOW  26  20  77 NE14      29.80F WCI  14
FLAG ISLAND    CLOUDY    27  19  74 NE17G31   29.86F WCI  14
INTL FALLS     LGT SNOW  25  19  78 NE17G29   29.77F WCI  12
WASKISH        LGT SNOW  25  21  86 NE9G20    29.76F WCI  15
BIG FORK       LGT SNOW  25  21  86 N14G21    29.70S VSB 1   WCI  13
LONGVILLE      LGT SNOW  27  25  93 N6        29.66S WCI  20
GRAND RAPIDS   LGT SNOW  26  24  92 N9        29.66S FOG     WCI  17
CRANE LAKE     LGT SNOW  23  19  86 N8G16     29.75F VSB 3/4 WCI  14
ORR            MIX PCPN  25  19  80 N3        29.68S
COOK           LGT SNOW  25  21  86 N6        29.68F WCI  18
WALKER         LGT SNOW  25  22  89 N12G18    29.68S WCI  14
$$
MNZ012-019>021-037-261600-
   Northeast Minnesota

CITY           SKY/WX    TMP DP  RH WIND       PRES   REMARKS
DULUTH         FRZ DRZL  32  31  96 NE10      29.57F FOG     WCI  24
ELY            LGT SNOW  25  23  93 NE10G24   29.64F WCI  15
HIBBING        MIX PCPN  26  24  92 N10       29.63S FOG     WCI  16
EVELETH        LGT SNOW  28  24  86 N6        29.63F WCI  21
DULUTH HARBOR  MIX PCPN  34  32  93 NE24G36   29.61S WCI  21
TWO HARBORS    LGT SNOW  36  30  80 NE5       29.57F VSB 1
SILVER BAY     MIX PCPN  34  32  93 NE9       29.59S WCI  26
GRAND MARAIS     N/A     33  29  85 NE10G20   29.61F WCI  25
G MARAIS ARPRT LGT SNOW  27  21  80 N6        29.58F WCI  20
$$
MNZ029>031-032-039>041-046>048-054>057-064-261600-
   West Central Minnesota

CITY           SKY/WX    TMP DP  RH WIND       PRES   REMARKS
FERGUS FALLS   DRIZZLE   30  28  93 N12G17    29.69F WCI  21
WHEATON        CLOUDY    30  28  93 N16       29.72R WCI  19
MORRIS         CLOUDY    34  32  93 N17       29.64F WCI  23
ALEXANDRIA     LGT SNOW  32  30  92 NE16      29.63F FOG     WCI  21
ELBOW LAKE     LGT SNOW  31  30  95 NE14      29.67S WCI  21
WADENA         MIX PCPN  27  25  93 N7        29.65S WCI  19
GLENWOOD       MIX PCPN  32  30  93 N10G16    29.62F WCI  24
APPLETON       LGT SNOW  36  32  87 N16       29.65S
BENSON         CLOUDY    36  30  80 NE12      29.65S HAZE
ORTONVILLE     CLOUDY    30  28  93 N16G28    29.67S WCI  19
MADISON        CLOUDY    36  36 100 NW21      29.66S FOG
WILLMAR        CLOUDY    34  34 100 N17       29.61F WCI  23
$$
MNZ033>034-036-042>043-049>051-058-059-261600-
   Central Minnesota

CITY           SKY/WX    TMP DP  RH WIND       PRES   REMARKS
ST CLOUD       LGT RAIN  34  33  96 N13       29.56F WCI  25
SAUK CENTRE    CLOUDY    32  30  93 N13G18    29.61F FOG     WCI  22
PAYNESVILLE    CLOUDY    33  33 100 N12G17    29.59F WCI  24
AITKIN         LGT SNOW  32  27  80 N8        29.59S WCI  25
PINE RIVER     LGT SNOW  28  27  93 N8        29.68S WCI  20
BRAINERD       MIX PCPN  30  27  88 N13       29.62S FOG     WCI  20
STAPLES        MIX PCPN  28  27  93 CALM      29.64R
LONG PRAIRIE   CLOUDY    32  30  93 CALM      29.61F
LITTLE FALLS   LGT SNOW  32  30  93 N6        29.60F WCI  26
LITCHFIELD     CLOUDY    36  36 100 N14G21    29.57F
BUFFALO        DRIZZLE   35  32  88 N10G18    29.55F WCI  27
MAPLE LAKE     DRIZZLE   37  35  94 N14       29.55F
HUTCHINSON     CLOUDY    37  36  94 N12G22    29.57R
$$
MNZ037-044-045-052-053-261600-
   East Central Minnesota

CITY           SKY/WX    TMP DP  RH WIND       PRES   REMARKS
PRINCETON      LGT RAIN  36  34  93 N12G17    29.55F
MORA           MIX PCPN  32  30  93 N6        29.56F WCI  26
CAMBRIDGE      RAIN      36  34  93 N8        29.52S
RUSH CITY      LGT RAIN  34  32  93 N10G16    29.53S WCI  26
MOOSE LAKE     MIX PCPN  32  30  93 N9        29.55F WCI  24
HINCKLEY       DRIZZLE   34  32  93 N14G21    29.54S WCI  24
CLOQUET        LGT SNOW  32  30  93 CALM      29.57F
MCGREGOR       CLOUDY    32  30  93 N8        29.60S WCI  25
$$
MNZ071>073-080-081-089-090-097-098-261600-
   Southwest Minnesota

CITY           SKY/WX    TMP DP  RH WIND       PRES   REMARKS
MONTEVIDEO     CLOUDY    36  36 100 NE17G23   29.63R
GRANITE FALLS  CLOUDY    37  34  87 NW15      29.64R
CANBY          CLOUDY    34  33  95 W16G23    29.67R FOG     WCI  24
MARSHALL       CLOUDY    34  33  96 N21G28    29.63R WCI  22
REDWOOD FALLS  CLOUDY    36  33  89 N13G24    29.59S
OLIVIA         CLOUDY    36  34  93 NW15G22   29.58S
PIPESTONE      CLOUDY    34  30  86 N18G26    29.62S WCI  23
WINDOM         MOSUNNY   36  36 100 NW22      29.58R
WORTHINGTON    CLOUDY    35  33  92 N22G28    29.59S WCI  23
JACKSON        CLOUDY    36  34  93 NW18G30   29.56S
TRACY          CLOUDY    36  34  95 N16G26    29.61S FOG
SLAYTON        CLOUDY    33  32  96 NW18G24   29.60S WCI  22
$$
MNZ065>067-074>077-082>085-091>093-261600-
   South Central Minnesota

CITY           SKY/WX    TMP DP  RH WIND       PRES   REMARKS
MANKATO        CLOUDY    37  35  92 N17       29.53R
NEW ULM        CLOUDY    37  36  93 NW17G23   29.55S
ST JAMES       CLOUDY    37  36  93 NW22G30   29.56S
FAIRMONT       CLOUDY    37  34  89 NW20G30   29.55R
GLENCOE        CLOUDY    36  36 100 NW12G18   29.54S
FARIBAULT      CLOUDY    36  36 100 NW10      29.50R
OWATONNA       CLOUDY    37  36  93 NW17      29.48S
WASECA         CLOUDY    36  34  93 N16G22    29.50S FOG
ALBERT LEA     CLOUDY    37  37 100 NW16      29.47R
$$
MNZ078>079-086>088-094>096-261600-
   Southeast Minnesota

CITY           SKY/WX    TMP DP  RH WIND       PRES   REMARKS
ROCHESTER      LGT RAIN  41  41 100 NW21      29.43R FOG
RED WING       DRIZZLE   39  36  87 NW5       29.46R
STANTON        LGT RAIN  38  35  89 N14       29.47S
DODGE CENTER   DRIZZLE   37  37 100 NW16      29.45S
WINONA         DRIZZLE   45  45 100 NW14G20   29.39F
AUSTIN         CLOUDY    39  37  93 N13G18    29.45R FOG
PRESTON        CLOUDY    46  44  95 NW14      29.40R FOG
$$
ABBREVIATIONS USED IN REMARKS
   TC - TEMPERATURES IN CELSIUS
  WCI - WIND CHILL INDEX
   HX - HEAT INDEX
  VSB - VISIBILITY
$$



USA.gov is the U.S. government's official web portal to all federal, state and local government web resources and services.